Regional Weather Roundup
Issued by NWS Portland, ME

Home | Current Version | Previous Version | Text Only | Print | Product List | Glossary On
Versions: 1 2 3 4 5 6 7 8 9 10 11 12 13 14 15 16 17 18 19 20 21 22 23 24 25 26 27 28 29 30 31 32 33 34 35 36 37 38 39 40 41 42 43 44 45 46 47 48 49 50
421
ASUS41 KGYX 230610
RWRGYX
WEATHER ROUNDUP FOR MAINE AND NEW HAMPSHIRE
NATIONAL WEATHER SERVICE GRAY ME
100 AM EST TUE JAN 23 2018

MEZ002-005-006-010-012-015-018-020-021-024-026-027-029-230700-
MAINE

CITY           SKY/WX    TMP DP  RH WIND       PRES   REMARKS
PORTLAND       MIX PCPN  22  21  96 N9        30.22F FOG
6HR MIN TEMP:  21; 6HR MAX TEMP:  23; 6HR PCP:  0.11;

SANFORD        MIX PCPN  22  21  96 N8        30.19F FOG
BAR HARBOR     SNOW      22  20  92 NE6       30.29S VSB 1/2
WISCASSET      CLOUDY    22  21  96 VRB3      30.25S FOG
6HR MIN TEMP:  20; 6HR MAX TEMP:  22; 6HR PCP:  0.12;

ROCKLAND       LGT SNOW  24  23  96 NE10G18   30.23F FOG     WCI  14
FRYEBURG       MIX PCPN  22  22 100 NE5       30.21F FOG
6HR MIN TEMP:  22; 6HR MAX TEMP:  23; 6HR PCP:  0.23;

LEWISTONAUBURN MIX PCPN  19  17  92 N10       30.23F FOG     WCI   7
AUGUSTA        LGT SNOW  18  16  92 N8        30.24F VSB 1
6HR MIN TEMP:  18; 6HR MAX TEMP:  20; 6HR PCP:  0.15;

WATERVILLE     LGT SNOW  18  16  92 NE8       30.21S FOG
BANGOR         SNOW      19  16  88 NE7       30.28F VSB 1/2
6HR MIN TEMP:  19; 6HR MAX TEMP:  21; 6HR PCP:  0.14;

GREENVILLE       N/A     13  11  92 SE10      30.14F WCI   0
6HR MIN TEMP:  13; 6HR MAX TEMP:  15; 6HR PCP:  0.25;

MILLINOCKET    LGT SNOW  15  12  88 NE6       30.32F VSB 3/4
6HR MIN TEMP:  15; 6HR MAX TEMP:  21; 6HR PCP:  0.09;

HOULTON        LGT SNOW  12   6  77 CALM      30.32F
6HR MIN TEMP:   8; 6HR MAX TEMP:  14; 6HR PCP: TRACE;

PRESQUE ISLE   LGT SNOW  11   3  70 NE6       30.32F
6HR MIN TEMP:   4; 6HR MAX TEMP:  11; 6HR PCP: TRACE;

FRENCHVILLE    CLOUDY     7  -2  66 E6        30.27F
6HR MIN TEMP:   6; 6HR MAX TEMP:   8;

CARIBOU        LGT SNOW  10   4  76 NE6       30.30F
6HR MIN TEMP:   9; 6HR MAX TEMP:  11; 6HR PCP:  0.01;

$$

NHZ002-005-008-009-011-012-014-230700-
NEW HAMPSHIRE

CITY           SKY/WX    TMP DP  RH WIND       PRES   REMARKS
PORTSMOUTH     FRZ DRZL  26  24  94 N3        30.16F FOG
ROCHESTER      CLOUDY    24  23  96 N9        30.17F FOG
6HR MIN TEMP:  24; 6HR MAX TEMP:  26; 6HR PCP:  0.06;

NASHUA         LGT SNOW  29  28  96 VRB3      30.15F FOG
MANCHESTER     FRZ DRZL  29  27  92 N9        30.13F VSB 1
6HR MIN TEMP:  28; 6HR MAX TEMP:  29; 6HR PCP:  0.05;

CONCORD        CLOUDY    27  24  89 N6        30.15F FOG
6HR MIN TEMP:  26; 6HR MAX TEMP:  28; 6HR PCP:  0.09;

LACONIA        MIX PCPN  24  22  91 E14       30.16F FOG     WCI  12
PLYMOUTH       CLOUDY    27  26  96 CALM      30.16F FOG
BERLIN         CLOUDY    28  22  78 SE15G25   30.08F WCI  16
6HR MIN TEMP:  25; 6HR MAX TEMP:  28; 6HR PCP:  0.08;

WHITEFIELD     CLOUDY    37  28  70 S13G28    30.02F
6HR MIN TEMP:  30; 6HR MAX TEMP:  38; 6HR PCP:  0.07;

JAFFREY        CLOUDY    29  28  96 CALM      30.09F FOG
6HR MIN TEMP:  28; 6HR MAX TEMP:  30; 6HR PCP:  0.05;

KEENE          CLOUDY    30  28  92 CALM      30.11F
LEBANON        CLOUDY    29  27  92 NE6       30.09F FOG
6HR MIN TEMP:  29; 6HR MAX TEMP:  31; 6HR PCP:  0.08;

MT WASHINGTON  SNOWSHWR  19  19 100 S44         N/A  VSB 0   WCI  -2
6HR MIN TEMP:  15; 6HR MAX TEMP:  20; 6HR PCP:  0.10;

$$

VTZ005-007-008-230700-
VERMONT

CITY           SKY/WX    TMP DP  RH WIND       PRES   REMARKS
ST JOHNSBURY     N/A     31  29  92 MISG      30.04F
MONTPELIER     CLOUDY    28  27  96 S10       30.06F WCI  19
BURLINGTON     CLOUDY    35  30  82 SE9       29.94F
$$

MAZ007-012-024-CTZ003-RIZ002-NYZ038-NYZ072-230700-
SOUTHERN NEW ENGLAND AND NY

CITY           SKY/WX    TMP DP  RH WIND       PRES   REMARKS
BOSTON         DRIZZLE   39  38  96 N7        30.13F FOG
WORCESTER      FOG       30  28  92 NE5       30.08F VSB 1/4
NANTUCKET      CLOUDY    43  43 100 SE9       30.12F
PROVIDENCE     FOG       38  38 100 N5        30.12S VSB 3/4
HARTFORD       DRIZZLE   34  34 100 N8        30.09F FOG
ALBANY         CLOUDY    38  34  85 S9        29.97F
NEW YORK CITY  FOG       36  35  96 NE8       30.03F VSB 1/8
$$

ANZ081-ANZ082-ANZ150-NHZ014-MEZ023>029-230700-
COASTAL MARINE OBSERVATIONS

STATION/POSITION TIME  TEMP    WIND        PRES    WAVE
                       AIR SEA DIR/SP/G            HT/PER
                 (UTC) (F)     (DEG/KT/KT) (MB)    (FT/S)
MOUNT DESERT ROC 0600   35      90/ 22/ 25 1023.9F
MATINICUS ROCK   0500   35     100/ 23/ 24 1022.9F
ISLE OF SHOALS   0500   29      20/  9/ 10 1021.2F
JEFFREYS LEDGE   0536      43                N/A     6/ 7
GEORGES BANK BUO 0450   42 54              1028.3    4/ 8
$$

.............KEY..............
   WCI - WIND CHILL
   TC  - TEMPERATURE IN CELSIUS
   VSB - VISIBILITY IN MILES
   HX  - HEAT INDEX
   FAIR- INDICATES FEW OR NO CLOUDS BELOW 12,000 FT, WITH NO
         SIGNIFICANT WEATHER AND/OR OBSTRUCTIONS TO VISIBILITY.






USA.gov is the U.S. government's official web portal to all federal, state and local government web resources and services.